Location: Zagreb
(45.8000°N, 16.0000°E)
Time: 18:47:00
(UTC+02:00)

Tiros 1 - All Passes

Search period start: 09 August 2020 00:00
Search period end: 19 August 2020 00:00
Orbit: 630 x 664 km, 48.4° (Epoch: 08 August)

Date Brightness Start Highest point End Pass type
(mag) Time Alt. Az. Time Alt. Az. Time Alt. Az.
09 Aug - 10:03:29 10° SSW 10:07:20 26° SE 10:11:11 10° E daylight
09 Aug - 11:44:29 10° WSW 11:49:08 84° SSE 11:53:47 10° ENE daylight
09 Aug - 13:26:55 10° W 13:31:31 62° N 13:36:07 10° E daylight
09 Aug - 15:09:18 10° WNW 15:13:57 89° S 15:18:35 10° ESE daylight
09 Aug - 16:51:48 10° W 16:55:48 29° SW 16:59:47 10° SSE daylight
10 Aug - 08:50:04 10° SSE 08:51:44 12° SE 08:53:23 10° ESE daylight
10 Aug - 10:28:38 10° SW 10:33:06 48° SSE 10:37:34 10° ENE daylight
10 Aug - 12:10:36 10° W 12:15:14 71° NNW 12:19:52 10° ENE daylight
10 Aug - 13:53:06 10° WNW 13:57:43 67° N 14:02:20 10° E daylight
10 Aug - 15:35:23 10° WNW 15:39:55 56° SSW 15:44:27 10° SE daylight
10 Aug - 17:18:53 10° WSW 17:21:24 15° SW 17:23:55 10° SSW daylight
11 Aug - 09:13:32 10° SSW 09:17:17 24° SE 09:21:02 10° E daylight
11 Aug - 10:54:23 10° WSW 10:59:02 81° SSE 11:03:41 10° ENE daylight
11 Aug - 12:36:48 10° W 12:41:25 62° N 12:46:00 10° E daylight
11 Aug - 14:19:12 10° WNW 14:23:50 88° NNE 14:28:28 10° ESE daylight
11 Aug - 16:01:40 10° W 16:05:44 31° SW 16:09:48 10° SSE daylight
12 Aug - 08:00:35 10° SE 08:01:41 11° SE 08:02:47 10° ESE daylight
12 Aug - 09:38:34 10° SW 09:43:01 45° SSE 09:47:27 10° ENE daylight
12 Aug - 11:20:28 10° W 11:25:08 73° NNW 11:29:46 10° ENE daylight
12 Aug - 13:02:59 10° WNW 13:07:37 66° N 13:12:13 10° E daylight
12 Aug - 14:45:17 10° WNW 14:49:50 60° SSW 14:54:23 10° SE daylight
12 Aug - 16:28:35 10° W 16:31:21 16° SW 16:34:06 10° S daylight
13 Aug - 08:23:34 10° S 08:27:13 23° SE 08:30:52 10° E daylight
13 Aug - 10:04:17 10° WSW 10:08:57 77° SSE 10:13:35 10° ENE daylight
13 Aug - 11:46:41 10° W 11:51:18 63° N 11:55:54 10° E daylight
13 Aug - 13:29:05 10° WNW 13:33:44 85° NNE 13:38:22 10° ESE daylight
13 Aug - 15:11:31 10° W 15:15:40 33° SW 15:19:48 10° SSE daylight
14 Aug - 08:48:31 10° SW 08:52:57 43° SSE 08:57:20 10° ENE daylight
14 Aug - 10:30:21 10° W 10:35:00 75° NNW 10:39:40 10° ENE daylight
14 Aug - 12:12:52 10° WNW 12:17:30 65° N 12:22:06 10° E daylight
14 Aug - 13:55:10 10° WNW 13:59:45 63° SSW 14:04:19 10° SE daylight
14 Aug - 15:38:19 10° W 15:41:18 17° SW 15:44:17 10° S daylight
15 Aug - 07:33:37 10° S 07:37:09 21° SE 07:40:41 10° E daylight
15 Aug - 09:14:11 10° WSW 09:18:51 74° SSE 09:23:29 10° ENE daylight
15 Aug - 10:56:33 10° W 11:01:11 63° N 11:05:46 10° ENE daylight
15 Aug - 12:38:58 10° WNW 12:43:38 82° NNE 12:48:16 10° ESE daylight
15 Aug - 14:21:23 10° W 14:25:36 35° SW 14:29:48 10° SSE daylight
16 Aug - 07:58:29 10° SW 08:02:52 40° SSE 08:07:13 10° ENE daylight
16 Aug - 09:40:13 10° WSW 09:44:54 78° NNW 09:49:34 10° ENE daylight
16 Aug - 11:22:44 10° WNW 11:27:22 64° N 11:31:59 10° E daylight
16 Aug - 13:05:03 10° WNW 13:09:40 67° SSW 13:14:14 10° ESE daylight
16 Aug - 14:48:05 10° W 14:51:15 18° SW 14:54:25 10° S daylight
17 Aug - 06:43:42 10° S 06:47:06 20° SE 06:50:29 10° E daylight
17 Aug - 08:24:05 10° WSW 08:28:45 70° SSE 08:33:23 10° ENE daylight
17 Aug - 10:06:25 10° W 10:11:04 64° N 10:15:40 10° ENE daylight
17 Aug - 11:48:51 10° WNW 11:53:32 79° NNE 11:58:10 10° ESE daylight
17 Aug - 13:31:15 10° WNW 13:35:32 38° SW 13:39:47 10° SSE daylight
18 Aug - 07:08:26 10° SSW 07:12:47 38° SE 07:17:06 10° ENE daylight
18 Aug - 08:50:05 10° WSW 08:54:47 80° NNW 08:59:28 10° ENE daylight
18 Aug - 10:32:37 10° WNW 10:37:15 64° N 10:41:52 10° E daylight
18 Aug - 12:14:56 10° WNW 12:19:35 71° SSW 12:24:10 10° ESE daylight
18 Aug - 13:57:52 10° W 14:01:12 20° SW 14:04:32 10° S daylight
